[[{"header":{"parameterUnit":"m.s-1","parameterCategory":1,"la1":30.2991,"la2":30.254,"lo1":-89.0895,"lo2":-89.0444,"dy":0.0017,"dx":0.0017,"nx":28,"ny":28,"refTime":"2024-04-14T21:00:00:Z","depth":0,"parameterNumber":2,"parameterNumberName":"U-component_of_WINDS"},"data":[0,0,0,0,0,0,0,0,0,0,0,0,0,0,0,0,0,0,0,0,0,0,0,0,0,0,0,0,0,0,0,0,0,0,0,0,0,0,0,0,0,0,0,0,0,0,0,0,0,0,0,0,0,0,0,0,0,0,-1.1462,-1.1462,0,-1.1486,-1.1486,-1.1486,-1.1469,-1.1468,-1.1468,-1.1467,-1.1493,-1.1494,-1.1496,0,0,0,0,0,0,0,0,0,0,0,0,0,-1.1401,-1.1403,-1.1462,-1.1462,-1.1462,-1.1486,-1.1486,-1.1486,-1.1469,-1.1468,-1.1467,-1.1467,-1.1492,-1.1494,-1.1496,0,0,0,0,0,0,0,0,0,0,0,0,0,-1.1427,-1.1403,-1.1462,-1.1456,-1.1456,-1.1486,-1.1486,-1.1487,-1.1469,-1.1468,-1.1467,-1.1466,-1.1492,-1.1494,-1.1496,-1.1532,0,0,-1.1502,-1.1503,0,0,0,0,0,0,0,0,-1.1425,-1.1429,-1.1457,-1.1457,-1.1457,-1.1473,-1.1474,-1.1502,-1.147,-1.1464,-1.1467,-1.1466,-1.1487,-1.149,-1.1497,-1.1533,-1.1534,-1.1503,-1.1504,-1.1505,-1.1505,0,0,0,0,0,0,0,-1.1424,-1.1428,-1.1471,-1.1457,-1.1457,-1.1453,-1.1456,-1.148,-1.1482,-1.1465,-1.1464,-1.1467,-1.1487,-1.1495,-1.1497,-1.1535,-1.1503,-1.1504,-1.1506,-1.1507,-1.1602,-1.1603,0,0,0,0,0,0,-1.1422,-1.1427,-1.147,-1.1472,-1.1438,-1.1455,-1.1458,-1.1469,-1.1482,-1.1483,-1.1468,-1.1466,-1.1492,-1.1495,-1.1498,-1.1541,-1.1505,-1.1507,-1.1508,-1.1601,-1.1602,-1.1604,0,0,0,0,0,0,-1.1421,-1.1426,-1.1469,-1.1449,-1.1454,-1.1458,-1.147,-1.147,-1.1478,-1.1484,-1.1484,-1.1475,-1.1491,-1.1495,-1.1524,-1.1542,-1.1508,-1.151,-1.1599,-1.1601,-1.1603,-1.1627,0,0,0,0,0,0,-1.1419,-1.1426,-1.1439,-1.1449,-1.1455,-1.1494,-1.1471,-1.1472,-1.1482,-1.1479,-1.1491,-1.1492,-1.149,-1.1521,-1.1526,-1.1544,-1.1511,-1.1598,-1.16,-1.1602,-1.1625,-1.163,-1.1634,0,0,0,0,0,-1.1417,-1.1446,-1.144,-1.1446,-1.1472,-1.1495,-1.1499,-1.1496,-1.1483,-1.1497,-1.1501,-1.1491,-1.1539,-1.1524,-1.1529,-1.1548,-1.1596,-1.1599,-1.1602,-1.1623,-1.1629,-1.1634,0,0,0,0,0,0,-1.1438,-1.1447,-1.1441,-1.1473,-1.1484,-1.1492,-1.151,-1.1503,-1.1517,-1.1515,-1.1511,-1.1514,-1.1544,-1.1549,-1.1532,-1.1584,-1.1566,-1.157,-1.1579,-1.1585,-1.159,-1.1588,-1.1513,0,0,0,0,0,-1.1447,-1.1464,-1.1471,-1.1499,-1.1505,-1.1506,-1.1516,-1.1513,-1.1524,-1.1529,-1.1534,-1.1546,-1.1563,-1.1574,-1.1591,-1.1626,-1.1628,-1.1642,-1.1646,-1.165,-1.1653,-1.1672,-1.1678,-1.1613,-1.1613,-1.1613,0,0,-1.1464,-1.1471,-1.1483,-1.1504,-1.1511,-1.153,-1.151,-1.1531,-1.1545,-1.1532,-1.1559,-1.1564,-1.1576,-1.1607,-1.1622,-1.1613,-1.1672,-1.1654,-1.1656,-1.1658,-1.1675,-1.1682,-1.1687,-1.1615,-1.1615,-1.1614,0,0,-1.1506,-1.1513,-1.1537,-1.1545,-1.1556,-1.1557,-1.1563,-1.1573,-1.1575,-1.1602,-1.1593,-1.161,-1.164,-1.1649,-1.1657,-1.1702,-1.1694,-1.1707,-1.1731,-1.1749,-1.1754,-1.1759,-1.1774,-1.178,-1.1711,-1.1711,-1.1711,0,-1.1526,-1.1554,-1.155,-1.1571,-1.1581,-1.157,-1.1594,-1.1602,-1.1619,-1.1625,-1.1615,-1.1652,-1.166,-1.1693,-1.1704,-1.1711,-1.1718,-1.1706,-1.1754,-1.1758,-1.1762,-1.1777,-1.1783,-1.1712,-1.1712,-1.1712,-1.1712,0,-1.1578,-1.1597,-1.1615,-1.1631,-1.1642,-1.1665,-1.1665,-1.1677,-1.1674,-1.1676,-1.1703,-1.1712,-1.1729,-1.1737,-1.1734,-1.177,-1.1764,-1.1754,-1.1735,-1.177,-1.1784,-1.179,-1.1715,-1.1714,-1.1714,-1.1713,0,0,-1.1633,-1.1647,-1.1653,-1.166,-1.1672,-1.1687,-1.1709,-1.1726,-1.1736,-1.1748,-1.1767,-1.1792,-1.1783,-1.1792,-1.179,-1.1806,-1.184,-1.1794,-1.1794,-1.1802,-1.1881,-1.1888,-1.1895,-1.1835,-1.1837,-1.1837,-1.1879,0,-1.1675,-1.1713,-1.1711,-1.1747,-1.1764,-1.1754,-1.1773,-1.1783,-1.1785,-1.1801,-1.1804,-1.1822,-1.1808,-1.1814,-1.1829,-1.1833,-1.1856,-1.183,-1.1853,-1.1853,-1.1849,-1.1902,-1.191,-1.1949,-1.1885,-1.1886,-1.1886,0,-1.1729,-1.1742,-1.178,-1.1788,-1.1796,-1.1813,-1.1828,-1.1843,-1.1854,-1.1855,-1.1865,-1.186,-1.1883,-1.1864,-1.1895,-1.1877,-1.1887,-1.189,-1.1891,-1.1893,-1.1872,-1.1905,-1.1962,-1.1967,-1.1895,-1.1894,-1.1894,0,-1.1765,-1.1792,-1.1818,-1.1824,-1.1835,-1.1848,-1.1853,-1.1863,-1.1873,-1.1886,-1.1893,-1.1909,-1.1918,-1.193,-1.193,-1.1916,-1.1961,-1.1943,-1.1963,-1.1963,-1.1972,-1.1972,-1.2031,-1.1979,-1.1979,-1.1979,-1.1979,0,-1.1812,-1.1835,-1.1834,-1.185,-1.1876,-1.1873,-1.1899,-1.1903,-1.1911,-1.1928,-1.192,-1.1936,-1.1935,-1.1951,-1.1951,-1.1976,-1.198,-1.1982,-1.1981,-1.1982,-1.1982,-1.1988,-1.1985,-1.198,-1.198,-1.198,-1.1979,0,-1.1856,-1.1857,-1.1884,-1.1892,-1.1895,-1.1914,-1.1921,-1.1936,-1.1938,-1.1959,-1.1964,-1.1967,-1.1985,-1.1986,-1.2008,-1.2008,-1.2039,-1.2035,-1.2035,-1.2034,-1.2054,-1.2052,-1.2119,-1.2127,-1.207,-1.2071,-1.2071,0,-1.1886,-1.1903,-1.1913,-1.1924,-1.1929,-1.1946,-1.1956,-1.1954,-1.1965,-1.1979,-1.1992,-1.201,-1.2024,-1.2054,-1.2058,-1.2075,-1.2072,-1.2094,-1.2074,-1.2074,-1.2071,-1.207,-1.2072,-1.2098,-1.2098,-1.2099,-1.2099,0,-1.1938,-1.1937,-1.1952,-1.1967,-1.1979,-1.1991,-1.2002,-1.2011,-1.201,-1.2022,-1.2041,-1.2052,-1.2073,-1.2091,-1.2107,-1.2113,-1.2106,-1.2106,-1.2111,-1.2112,-1.2111,-1.2111,-1.2045,-1.2104,-1.2104,-1.2103,-1.2103,-1.2103,-1.1976,-1.1991,-1.2,-1.2016,-1.2024,-1.2034,-1.2049,-1.2052,-1.2068,-1.2084,-1.2082,-1.2103,-1.2113,-1.2134,-1.2141,-1.2157,-1.2149,-1.2157,-1.2159,-1.2161,-1.2163,-1.2108,-1.216,-1.216,-1.216,-1.216,-1.216,0,-1.2027,-1.2033,-1.2048,-1.2063,-1.2076,-1.2068,-1.208,-1.2091,-1.2109,-1.2119,-1.2133,-1.2154,-1.2171,-1.2176,-1.2193,-1.2205,-1.2202,-1.2209,-1.2208,-1.221,-1.2169,-1.2163,-1.2211,-1.2211,-1.2211,-1.2211,-1.2211,-1.2211,-1.2056,-1.208,-1.2081,-1.2109,-1.2114,-1.2134,-1.2141,-1.2151,-1.2158,-1.2182,-1.2196,-1.2199,-1.2207,-1.2224,-1.224,-1.2241,-1.2247,-1.2256,-1.2255,-1.2218,-1.2212,-1.2207,-1.2201,-1.2257,-1.2257,-1.2294,-1.2295,-1.2295]},{"header":{"parameterUnit":"m.s-1","parameterCategory":1,"la1":30.2991,"la2":30.254,"lo1":-89.0895,"lo2":-89.0444,"dy":0.0017,"dx":0.0017,"nx":28,"ny":28,"refTime":"2024-04-14T21:00:00:Z","depth":0,"parameterNumber":3,"parameterNumberName":"V-component_of_WINDS"},"data":[0,0,0,0,0,0,0,0,0,0,0,0,0,0,0,0,0,0,0,0,0,0,0,0,0,0,0,0,0,0,0,0,0,0,0,0,0,0,0,0,0,0,0,0,0,0,0,0,0,0,0,0,0,0,0,0,0,0,2.7773,2.7773,0,2.779,2.7791,2.7791,2.7769,2.7768,2.7767,2.7767,2.7783,2.7784,2.7786,0,0,0,0,0,0,0,0,0,0,0,0,0,2.7721,2.7722,2.7773,2.7773,2.7774,2.779,2.7791,2.7791,2.7769,2.7768,2.7767,2.7766,2.7783,2.7784,2.7786,0,0,0,0,0,0,0,0,0,0,0,0,0,2.7741,2.7722,2.7773,2.7765,2.7764,2.779,2.7791,2.7791,2.7769,2.7768,2.7767,2.7766,2.7782,2.7784,2.7786,2.7821,0,0,2.7791,2.7792,0,0,0,0,0,0,0,0,2.774,2.7743,2.7766,2.7765,2.7765,2.7776,2.7778,2.7801,2.777,2.7767,2.7767,2.7765,2.7782,2.7784,2.7789,2.7821,2.7822,2.7791,2.7793,2.7793,2.7794,0,0,0,0,0,0,0,2.7739,2.7742,2.778,2.7766,2.7766,2.776,2.7762,2.7782,2.7781,2.7767,2.7766,2.7768,2.7781,2.7788,2.779,2.7822,2.7791,2.7793,2.7794,2.7795,2.7884,2.7885,0,0,0,0,0,0,2.7738,2.7741,2.7779,2.778,2.7749,2.7762,2.7764,2.7774,2.7781,2.7781,2.7769,2.7767,2.7785,2.7788,2.779,2.7831,2.7793,2.7795,2.7796,2.7882,2.7884,2.7885,0,0,0,0,0,0,2.7737,2.7742,2.7779,2.776,2.7765,2.7764,2.7776,2.7775,2.7781,2.7782,2.7782,2.7776,2.7784,2.7788,2.7813,2.7831,2.7796,2.7797,2.7881,2.7883,2.7885,2.7913,0,0,0,0,0,0,2.7736,2.7742,2.7755,2.7761,2.7766,2.7802,2.7777,2.7776,2.7784,2.7782,2.7788,2.7788,2.7784,2.7811,2.7815,2.7833,2.7799,2.7879,2.7882,2.7884,2.791,2.7916,2.792,0,0,0,0,0,2.7734,2.7762,2.7756,2.776,2.7782,2.7803,2.7806,2.78,2.7786,2.7799,2.78,2.7788,2.7829,2.7814,2.7818,2.7837,2.7878,2.7881,2.7884,2.7908,2.7915,2.792,0,0,0,0,0,0,2.7758,2.7763,2.7756,2.7787,2.7795,2.7799,2.7816,2.7807,2.7819,2.7816,2.7808,2.781,2.7837,2.784,2.7823,2.7871,2.7851,2.7855,2.7868,2.7874,2.7879,2.7877,2.78,0,0,0,0,0,2.7767,2.7783,2.7786,2.7813,2.7818,2.7816,2.7825,2.782,2.7828,2.7831,2.7833,2.7841,2.7855,2.7865,2.7878,2.7911,2.7912,2.7926,2.7931,2.7935,2.7938,2.7956,2.7962,2.7895,2.7895,2.7895,0,0,2.7785,2.779,2.7801,2.7818,2.7824,2.7841,2.7819,2.7838,2.785,2.7833,2.7858,2.786,2.7868,2.7897,2.791,2.79,2.7957,2.7939,2.7942,2.7943,2.7959,2.7966,2.7971,2.7897,2.7896,2.7896,0,0,2.7827,2.7832,2.7855,2.7862,2.7871,2.7869,2.7875,2.7881,2.7882,2.7907,2.7894,2.7909,2.7934,2.794,2.7947,2.7992,2.7981,2.7997,2.8022,2.8039,2.8044,2.8048,2.8064,2.807,2.8,2.8,2.8,0,2.7848,2.7874,2.7868,2.7888,2.7896,2.7882,2.7905,2.7912,2.7924,2.793,2.7919,2.795,2.7955,2.7985,2.7996,2.8002,2.8008,2.7995,2.8044,2.8048,2.8052,2.8067,2.8073,2.8002,2.8002,2.8001,2.8001,0,2.7899,2.7917,2.7935,2.7948,2.7958,2.7979,2.7977,2.7988,2.7982,2.7982,2.8007,2.8012,2.8026,2.8033,2.8028,2.8063,2.8057,2.8045,2.8024,2.8061,2.8074,2.808,2.8004,2.8004,2.8003,2.8003,0,0,2.7956,2.7966,2.7972,2.7978,2.7987,2.8001,2.8022,2.8036,2.8045,2.8055,2.8072,2.8094,2.8083,2.809,2.8086,2.8101,2.8136,2.8087,2.8087,2.8095,2.8174,2.8183,2.8189,2.8129,2.813,2.8131,2.8173,0,2.7997,2.8033,2.8029,2.8064,2.808,2.8068,2.8086,2.8093,2.8094,2.8108,2.8108,2.8124,2.8109,2.8113,2.8127,2.8128,2.8151,2.8125,2.8144,2.8145,2.8142,2.8197,2.8205,2.8245,2.8179,2.818,2.818,0,2.805,2.8062,2.8098,2.8105,2.8112,2.8128,2.8141,2.8154,2.8163,2.8162,2.8171,2.8164,2.8184,2.8165,2.8193,2.8175,2.8183,2.8185,2.8186,2.8187,2.8164,2.8198,2.8257,2.8263,2.8189,2.8188,2.8188,0,2.8087,2.8112,2.8137,2.8142,2.8151,2.8163,2.8167,2.8174,2.8183,2.8194,2.82,2.8214,2.8221,2.8231,2.8228,2.8214,2.8257,2.8237,2.8256,2.8257,2.8265,2.8265,2.8326,2.8272,2.8272,2.8271,2.8271,0,2.8133,2.8156,2.8153,2.8169,2.8193,2.8189,2.8213,2.8216,2.8222,2.8238,2.8228,2.8243,2.8238,2.8252,2.825,2.8273,2.8276,2.8276,2.8275,2.8277,2.8277,2.8281,2.8278,2.8273,2.8273,2.8272,2.8272,0,2.8178,2.8178,2.8204,2.821,2.8212,2.823,2.8236,2.825,2.825,2.827,2.8274,2.8275,2.8291,2.8289,2.8307,2.8305,2.8334,2.833,2.8332,2.833,2.835,2.8348,2.8415,2.8424,2.8365,2.8366,2.8366,0,2.8207,2.8224,2.8233,2.8243,2.8248,2.8264,2.8273,2.8269,2.8279,2.829,2.8303,2.8318,2.833,2.8357,2.8359,2.8373,2.8368,2.8391,2.837,2.8371,2.8368,2.8367,2.8368,2.8395,2.8396,2.8396,2.8397,0,2.8259,2.8258,2.8272,2.8286,2.8297,2.8308,2.8318,2.8326,2.8323,2.8335,2.8352,2.8361,2.838,2.8395,2.8408,2.8412,2.8404,2.8403,2.8408,2.841,2.8409,2.8409,2.8342,2.8401,2.8401,2.8401,2.84,2.84,2.8296,2.8311,2.8319,2.8335,2.8342,2.8351,2.8365,2.8368,2.8382,2.8397,2.8394,2.8412,2.8421,2.8437,2.8443,2.8457,2.8449,2.8457,2.8458,2.846,2.8462,2.8408,2.846,2.846,2.846,2.8459,2.8459,0,2.8347,2.8352,2.8367,2.8381,2.8393,2.8385,2.8395,2.8406,2.8423,2.8431,2.8444,2.8463,2.8478,2.8481,2.8496,2.8507,2.8503,2.851,2.8509,2.851,2.8469,2.8463,2.8513,2.8513,2.8513,2.8513,2.8513,2.8513,2.8375,2.8399,2.8399,2.8426,2.8431,2.845,2.8456,2.8465,2.8472,2.8494,2.8506,2.8509,2.8515,2.853,2.8543,2.8544,2.8549,2.8558,2.8557,2.8518,2.8513,2.8508,2.8502,2.8559,2.856,2.8597,2.8597,2.8597]}]]